Flag for Honduras Weather past 2 weeks in La Ceiba, Honduras

Now
72 °F

Passing clouds.


Feels Like: 69 °F
Forecast: 73 / 84 °F
Wind: 2 mph from South

Location: La Ceiba Airport

Current Time: Dec 29, 2014 at 5:46:51 AM

Latest Report: Dec 29, 2014 at 5:00 AM


Visibility: N/A

Pressure: 29.95 "Hg

Humidity: 88%

Dew point: 68 °F

Location of La CeibaLocation

Historic Weather in La Ceiba — Graph

°F

La Ceiba temperature yesterday

Maximum temperature yesterday: 82 °F (at 10:00 AM)
Minimum temperature yesterday: 70 °F (at 4:00 AM)
Average temperature yesterday: 77 °F

Past Weeks' High & Low Weather Summary

 TemperatureHumidityPressure
High88 °F (Dec 24, 3:00 PM)100% (Dec 14, 7:00 AM)30.15 "Hg (Dec 14, 7:00 AM)
Low64 °F (Dec 17, 6:00 AM)65% (Dec 17, 10:00 AM)29.68 "Hg (Dec 23, 5:00 PM)
Average74 °F84%29.96 "Hg
* Reported Dec 14 4:00 AM — Dec 29 4:00 AM, La Ceiba, Weather by CustomWeather, © 2014

Note: Actual official high and low records may vary slightly from our data, if they occured in-between our weather recording intervals... More about our weather records

Advertising

La Ceiba weather history for previous 24 hours

 ConditionsComfort  
Time TempWeatherWind HumidityBarometerVisibility
4:00 AM
Dec 29
73 °FPartly cloudy.No wind89%29.95 "HgN/A
3:00 AM73 °FPartly cloudy.No wind89%29.92 "HgN/A
2:00 AM73 °FPartly cloudy.3 mph89%29.95 "HgN/A
1:00 AM73 °FPartly cloudy.No wind89%29.95 "HgN/A
12:00 AM75 °FPartly cloudy.2 mph89%29.98 "HgN/A
11:00 PM
Dec 28
75 °FPartly cloudy.No wind89%30.01 "HgN/A
10:00 PM75 °FPartly cloudy.2 mph89%30.01 "HgN/A
9:00 PM77 °FPartly cloudy.No wind83%29.98 "HgN/A
8:00 PM77 °FPartly cloudy.No wind89%29.98 "HgN/A
7:00 PM77 °FPartly cloudy.No wind89%29.95 "HgN/A
6:00 PM79 °FPartly cloudy.No wind84%29.92 "HgN/A
5:00 PM81 °FBroken clouds.No wind79%29.92 "HgN/A
4:00 PM81 °FBroken clouds.7 mph74%29.92 "HgN/A
3:00 PM82 °FScattered clouds.5 mph74%29.92 "HgN/A
2:00 PM82 °FBroken clouds.7 mph70%29.92 "HgN/A
1:00 PM81 °FBroken clouds.7 mph74%29.95 "HgN/A
12:00 PM82 °FPassing clouds.6 mph70%29.98 "HgN/A
11:00 AM81 °FPassing clouds.5 mph74%29.98 "HgN/A
10:00 AM82 °FPassing clouds.2 mph74%30.01 "HgN/A
9:00 AM81 °FPassing clouds.No wind74%30.01 "HgN/A
8:00 AM75 °FPassing clouds.2 mph78%30.01 "HgN/A
7:00 AM70 °FScattered clouds.2 mph94%29.98 "HgN/A
6:00 AM70 °FPassing clouds.No wind94%29.95 "HgN/A
5:00 AM70 °FPassing clouds.2 mph94%29.92 "HgN/A
Weather by CustomWeather, © 2014

See weather overviewHow to use our weather pages